| time (UTC) | temp F | wind direction | speed MPH | gust MPH | rain 1hr in | rain 24hr in | rain mn in | humidity % | barometer mb |
| 20260905234039 | 96 | 47 | 0.0 | 2.0 | 0.00 | 0.00 | 0.00 | 48 | 1010.5 |
| 20260905233017 | 97 | 40 | 1.0 | 3.0 | 0.00 | 0.00 | 0.00 | 46 | 1010.4 |
| 20260905232038 | 97 | 353 | 3.0 | 5.0 | 0.00 | 0.00 | 0.00 | 44 | 1010.5 |
| 20260905231017 | 97 | 24 | 2.0 | 4.0 | 0.00 | 0.00 | 0.00 | 45 | 1010.5 |
| 20260905230018 | 98 | 320 | 2.0 | 5.0 | 0.00 | 0.00 | 0.00 | 44 | 1010.6 |
| 20260905225038 | 98 | 304 | 3.0 | 6.0 | 0.00 | 0.00 | 0.00 | 42 | 1010.5 |
| 20260905224038 | 98 | 322 | 3.0 | 6.0 | 0.00 | 0.00 | 0.00 | 42 | 1010.4 |
| 20260905223018 | 98 | 306 | 3.0 | 6.0 | 0.00 | 0.00 | 0.00 | 42 | 1010.4 |
| 20260905222038 | 99 | 307 | 3.0 | 5.0 | 0.00 | 0.00 | 0.00 | 41 | 1010.5 |
| 20260905221018 | 98 | 322 | 3.0 | 5.0 | 0.00 | 0.00 | 0.00 | 41 | 1010.5 |
| 20260905220019 | 99 | 305 | 3.0 | 5.0 | 0.00 | 0.00 | 0.00 | 42 | 1010.5 |
| 20260905215018 | 99 | 294 | 2.0 | 5.0 | 0.00 | 0.00 | 0.00 | 41 | 1010.6 |
| 20260905214019 | 99 | 276 | 2.0 | 5.0 | 0.00 | 0.00 | 0.00 | 39 | 1010.7 |
| 20260905213016 | 99 | 45 | 1.0 | 4.0 | 0.00 | 0.00 | 0.00 | 40 | 1010.7 |
| 20260905212036 | 100 | 279 | 2.0 | 4.0 | 0.00 | 0.00 | 0.00 | 39 | 1010.7 |
| 20260905211016 | 101 | 243 | 1.0 | 5.0 | 0.00 | 0.00 | 0.00 | 39 | 1010.7 |
| 20260905210016 | 101 | 232 | 2.0 | 3.0 | 0.00 | 0.00 | 0.00 | 39 | 1010.8 |
| 20260905205016 | 99 | 216 | 2.0 | 5.0 | 0.00 | 0.00 | 0.00 | 40 | 1010.8 |
| 20260905204017 | 98 | 215 | 2.0 | 5.0 | 0.00 | 0.00 | 0.00 | 43 | 1010.9 |
| 20260905203017 | 98 | 173 | 2.0 | 4.0 | 0.00 | 0.00 | 0.00 | 43 | 1011.1 |
| 20260905202036 | 98 | 206 | 3.0 | 6.0 | 0.00 | 0.00 | 0.00 | 44 | 1011.3 |
| 20260905201018 | 97 | 195 | 2.0 | 5.0 | 0.00 | 0.00 | 0.00 | 44 | 1011.4 |
| 20260905200017 | 97 | 139 | 2.0 | 5.0 | 0.00 | 0.01 | 0.00 | 45 | 1011.5 |
| 20260905195018 | 99 | 182 | 2.0 | 4.0 | 0.00 | 0.02 | 0.00 | 43 | 1011.7 |
| 20260905194040 | 99 | 208 | 2.0 | 6.0 | 0.00 | 0.03 | 0.00 | 43 | 1011.8 |
| 20260905193017 | 99 | 219 | 4.0 | 7.0 | 0.00 | 0.03 | 0.00 | 44 | 1012.0 |
| 20260905192058 | 99 | 224 | 5.0 | 8.0 | 0.00 | 0.03 | 0.00 | 42 | 1012.2 |
| 20260905191038 | 99 | 216 | 5.0 | 8.0 | 0.00 | 0.16 | 0.00 | 41 | 1012.3 |
| 20260905190018 | 100 | 239 | 3.0 | 8.0 | 0.00 | 0.75 | 0.00 | 39 | 1012.3 |
| 20260905185018 | 99 | 199 | 2.0 | 5.0 | 0.00 | 0.84 | 0.00 | 41 | 1012.4 |
| 20260905184018 | 98 | 264 | 2.0 | 4.0 | 0.00 | 0.84 | 0.00 | 43 | 1012.5 |
| 20260905183038 | 97 | 336 | 2.0 | 4.0 | 0.00 | 0.84 | 0.00 | 43 | 1012.6 |
| 20260905182020 | 97 | 153 | 2.0 | 4.0 | 0.00 | 0.84 | 0.00 | 44 | 1012.7 |
| 20260905181018 | 97 | 271 | 2.0 | 4.0 | 0.00 | 0.84 | 0.00 | 44 | 1012.8 |
| 20260905180019 | 97 | 92 | 1.0 | 3.0 | 0.00 | 0.84 | 0.00 | 45 | 1012.9 |
| 20260905175015 | 96 | 267 | 3.0 | 6.0 | 0.00 | 0.84 | 0.00 | 46 | 1013.0 |
| 20260905174016 | 97 | 334 | 2.0 | 5.0 | 0.00 | 0.84 | 0.00 | 45 | 1013.2 |
| 20260905173016 | 98 | 62 | 3.0 | 8.0 | 0.00 | 0.84 | 0.00 | 44 | 1013.1 |
| 20260905172037 | 97 | 216 | 3.0 | 5.0 | 0.00 | 0.84 | 0.00 | 45 | 1013.2 |
| 20260905171017 | 96 | 221 | 2.0 | 4.0 | 0.00 | 0.84 | 0.00 | 46 | 1013.4 |
| 20260905170016 | 97 | 303 | 3.0 | 7.0 | 0.00 | 0.84 | 0.00 | 44 | 1013.3 |
| 20260905165017 | 97 | 319 | 3.0 | 8.0 | 0.00 | 0.84 | 0.00 | 46 | 1013.4 |
| 20260905164016 | 97 | 135 | 1.0 | 3.0 | 0.00 | 0.84 | 0.00 | 46 | 1013.5 |
| 20260905163037 | 95 | 321 | 2.0 | 4.0 | 0.00 | 0.84 | 0.00 | 48 | 1013.6 |
| 20260905162017 | 96 | 277 | 2.0 | 5.0 | 0.00 | 0.84 | 0.00 | 47 | 1013.7 |
| 20260905161017 | 96 | 268 | 3.0 | 8.0 | 0.00 | 0.84 | 0.00 | 47 | 1013.7 |
| 20260905160018 | 95 | 210 | 2.0 | 4.0 | 0.00 | 0.84 | 0.00 | 49 | 1013.8 |
| 20260905155019 | 95 | 279 | 1.0 | 4.0 | 0.00 | 0.84 | 0.00 | 50 | 1013.8 |
| 20260905154017 | 94 | 337 | 2.0 | 4.0 | 0.00 | 0.84 | 0.00 | 52 | 1013.9 |
| 20260905153017 | 94 | 314 | 2.0 | 5.0 | 0.00 | 0.84 | 0.00 | 52 | 1014.0 |
| 20260905152017 | 93 | 238 | 3.0 | 4.0 | 0.00 | 0.84 | 0.00 | 54 | 1014.0 |
| 20260905151017 | 92 | 241 | 2.0 | 6.0 | 0.00 | 0.84 | 0.00 | 58 | 1014.0 |
| 20260905150016 | 91 | 153 | 1.0 | 3.0 | 0.00 | 0.84 | 0.00 | 64 | 1014.1 |
| 20260905145057 | 90 | 150 | 1.0 | 4.0 | 0.00 | 0.84 | 0.00 | 67 | 1014.1 |
| 20260905144038 | 90 | 107 | 1.0 | 3.0 | 0.00 | 0.84 | 0.00 | 67 | 1014.1 |
| 20260905143038 | 89 | 210 | 1.0 | 4.0 | 0.00 | 0.84 | 0.00 | 67 | 1014.1 |
| 20260905142017 | 89 | 210 | 1.0 | 2.0 | 0.00 | 0.84 | 0.00 | 67 | 1014.1 |
| 20260905141037 | 87 | 20 | 1.0 | 4.0 | 0.00 | 0.84 | 0.00 | 71 | 1014.1 |
| 20260905140018 | 86 | 51 | 0.0 | 1.0 | 0.00 | 0.84 | 0.00 | 74 | 1014.0 |
| 20260905135016 | 85 | 82 | 0.0 | 2.0 | 0.00 | 0.84 | 0.00 | 75 | 1014.0 |
| 20260905134016 | 84 | 107 | 0.0 | 2.0 | 0.00 | 0.84 | 0.00 | 77 | 1014.0 |
| 20260905133016 | 83 | 63 | 1.0 | 3.0 | 0.00 | 0.84 | 0.00 | 78 | 1014.0 |
| 20260905132056 | 83 | 129 | 0.0 | 1.0 | 0.00 | 0.84 | 0.00 | 78 | 1014.0 |
| 20260905131018 | 82 | 118 | 0.0 | 1.0 | 0.00 | 0.84 | 0.00 | 80 | 1013.9 |
| 20260905130016 | 81 | 91 | 0.0 | 2.0 | 0.00 | 0.84 | 0.00 | 80 | 1013.8 |
| 20260905125016 | 79 | 46 | 0.0 | 1.0 | 0.00 | 0.84 | 0.00 | 84 | 1013.8 |
| 20260905124059 | 79 | 82 | 0.0 | 1.0 | 0.00 | 0.84 | 0.00 | 86 | 1013.8 |
| 20260905123017 | 78 | 63 | 0.0 | 1.0 | 0.00 | 0.84 | 0.00 | 86 | 1013.8 |
| 20260905122040 | 77 | 0.0 | 0.0 | 0.00 | 0.84 | 0.00 | 89 | 1013.7 | |
| 20260905121019 | 77 | 62 | 0.0 | 1.0 | 0.00 | 0.84 | 0.00 | 89 | 1013.7 |
| 20260905120019 | 77 | 0.0 | 0.0 | 0.00 | 0.84 | 0.00 | 89 | 1013.6 | |
| 20260905115019 | 77 | 360 | 0.0 | 1.0 | 0.00 | 0.84 | 0.00 | 88 | 1013.5 |
| 20260905114019 | 77 | 299 | 0.0 | 1.0 | 0.00 | 0.84 | 0.00 | 90 | 1013.4 |
| 20260905113019 | 77 | 227 | 1.0 | 2.0 | 0.00 | 0.84 | 0.00 | 90 | 1013.4 |
| 20260905112020 | 77 | 0.0 | 0.0 | 0.00 | 0.84 | 0.00 | 89 | 1013.3 | |
| 20260905111019 | 77 | 248 | 1.0 | 2.0 | 0.00 | 0.84 | 0.00 | 88 | 1013.3 |
| 20260905110020 | 77 | 243 | 1.0 | 2.0 | 0.00 | 0.84 | 0.00 | 89 | 1013.4 |
| 20260905105101 | 77 | 237 | 1.0 | 2.0 | 0.00 | 0.84 | 0.00 | 88 | 1013.3 |
| 20260905104020 | 77 | 237 | 1.0 | 2.0 | 0.00 | 0.84 | 0.00 | 89 | 1013.2 |
| 20260905103041 | 77 | 220 | 2.0 | 3.0 | 0.00 | 0.84 | 0.00 | 91 | 1013.2 |
| 20260905102040 | 77 | 218 | 1.0 | 1.0 | 0.00 | 0.84 | 0.00 | 90 | 1013.1 |
| 20260905101020 | 76 | 226 | 2.0 | 2.0 | 0.00 | 0.84 | 0.00 | 91 | 1013.1 |
| 20260905100021 | 77 | 194 | 1.0 | 2.0 | 0.00 | 0.84 | 0.00 | 91 | 1013.0 |
| 20260905095041 | 77 | 322 | 0.0 | 1.0 | 0.00 | 0.84 | 0.00 | 90 | 1012.9 |
| 20260905094021 | 77 | 0.0 | 0.0 | 0.00 | 0.84 | 0.00 | 91 | 1012.9 | |
| 20260905093021 | 78 | 0.0 | 0.0 | 0.00 | 0.84 | 0.00 | 89 | 1012.9 | |
| 20260905092021 | 78 | 354 | 0.0 | 1.0 | 0.00 | 0.84 | 0.00 | 89 | 1012.9 |
| 20260905091022 | 78 | 259 | 1.0 | 1.0 | 0.00 | 0.84 | 0.00 | 89 | 1012.9 |
| 20260905090022 | 79 | 229 | 1.0 | 2.0 | 0.00 | 0.84 | 0.00 | 88 | 1012.9 |
| 20260905085018 | 78 | 306 | 0.0 | 2.0 | 0.00 | 0.84 | 0.00 | 87 | 1012.9 |
| 20260905084018 | 78 | 219 | 2.0 | 3.0 | 0.00 | 0.84 | 0.00 | 89 | 1012.8 |
| 20260905083018 | 79 | 188 | 0.0 | 2.0 | 0.00 | 0.84 | 0.00 | 89 | 1012.9 |
| 20260905082018 | 79 | 60 | 0.0 | 1.0 | 0.00 | 0.84 | 0.00 | 87 | 1012.9 |
| 20260905081019 | 79 | 243 | 1.0 | 3.0 | 0.00 | 0.84 | 0.00 | 87 | 1012.9 |
| 20260905080015 | 79 | 245 | 1.0 | 3.0 | 0.00 | 0.84 | 0.00 | 89 | 1013.0 |
| 20260905075018 | 79 | 217 | 0.0 | 2.0 | 0.00 | 0.84 | 0.00 | 89 | 1013.0 |
| 20260905074016 | 79 | 252 | 1.0 | 3.0 | 0.00 | 0.84 | 0.00 | 87 | 1012.9 |
| 20260905073018 | 78 | 284 | 1.0 | 4.0 | 0.00 | 0.84 | 0.00 | 90 | 1013.0 |
| 20260905072016 | 79 | 223 | 1.0 | 4.0 | 0.00 | 0.84 | 0.00 | 90 | 1013.1 |
| 20260905071038 | 79 | 152 | 0.0 | 2.0 | 0.00 | 0.84 | 0.00 | 88 | 1013.0 |
| 20260905070016 | 79 | 325 | 1.0 | 2.0 | 0.00 | 0.84 | 0.00 | 90 | 1012.9 |
| 20260905065016 | 80 | 101 | 0.0 | 1.0 | 0.00 | 0.84 | 0.00 | 88 | 1013.1 |
| 20260905064017 | 79 | 287 | 1.0 | 2.0 | 0.00 | 0.84 | 0.00 | 88 | 1013.1 |
| 20260905063017 | 79 | 179 | 0.0 | 1.0 | 0.00 | 0.84 | 0.00 | 89 | 1013.2 |
| 20260905062016 | 80 | 220 | 0.0 | 2.0 | 0.00 | 0.84 | 0.00 | 88 | 1013.3 |
| 20260905061017 | 81 | 105 | 0.0 | 1.0 | 0.00 | 0.84 | 0.00 | 86 | 1013.3 |
| 20260905060017 | 81 | 263 | 2.0 | 3.0 | 0.00 | 0.84 | 0.00 | 86 | 1013.2 |
| 20260905055019 | 82 | 269 | 0.0 | 1.0 | 0.00 | 0.84 | 0.00 | 84 | 1013.3 |
| 20260905054018 | 82 | 71 | 0.0 | 1.0 | 0.00 | 0.84 | 0.00 | 82 | 1013.3 |
| 20260905053018 | 83 | 305 | 2.0 | 5.0 | 0.00 | 0.84 | 0.00 | 80 | 1013.3 |
| 20260905052018 | 82 | 267 | 1.0 | 2.0 | 0.00 | 0.84 | 0.00 | 81 | 1013.4 |
| 20260905051018 | 81 | 287 | 1.0 | 5.0 | 0.00 | 0.84 | 0.00 | 84 | 1013.4 |
| 20260905050018 | 81 | 232 | 1.0 | 3.0 | 0.00 | 0.84 | 0.00 | 85 | 1013.4 |
| 20260905045039 | 82 | 229 | 1.0 | 3.0 | 0.00 | 0.84 | 0.84 | 86 | 1013.5 |
| 20260905044018 | 82 | 246 | 2.0 | 2.0 | 0.00 | 0.84 | 0.84 | 84 | 1013.4 |
| 20260905043039 | 83 | 141 | 0.0 | 1.0 | 0.00 | 0.84 | 0.84 | 82 | 1013.4 |
| 20260905042020 | 82 | 243 | 2.0 | 3.0 | 0.00 | 0.84 | 0.84 | 82 | 1013.4 |
| 20260905041016 | 82 | 231 | 2.0 | 3.0 | 0.00 | 0.84 | 0.84 | 82 | 1013.4 |
| 20260905040016 | 82 | 231 | 2.0 | 2.0 | 0.00 | 0.84 | 0.84 | 84 | 1013.5 |
| 20260905035037 | 82 | 213 | 2.0 | 3.0 | 0.00 | 0.84 | 0.84 | 84 | 1013.6 |
| 20260905034017 | 82 | 217 | 2.0 | 3.0 | 0.00 | 0.84 | 0.84 | 86 | 1013.7 |
| 20260905033016 | 83 | 142 | 0.0 | 1.0 | 0.00 | 0.84 | 0.84 | 86 | 1013.7 |
| 20260905032037 | 83 | 234 | 0.0 | 1.0 | 0.00 | 0.84 | 0.84 | 83 | 1013.8 |
| 20260905031018 | 84 | 84 | 0.0 | 0.0 | 0.00 | 0.84 | 0.84 | 83 | 1013.7 |
| 20260905030038 | 84 | 259 | 0.0 | 2.0 | 0.00 | 0.84 | 0.84 | 81 | 1013.7 |
| 20260905025037 | 84 | 279 | 1.0 | 4.0 | 0.00 | 0.84 | 0.84 | 81 | 1013.7 |
| 20260905024017 | 84 | 241 | 1.0 | 2.0 | 0.00 | 0.84 | 0.84 | 81 | 1013.6 |
| 20260905023016 | 84 | 265 | 2.0 | 4.0 | 0.00 | 0.84 | 0.84 | 82 | 1013.6 |
| 20260905022017 | 84 | 254 | 0.0 | 0.0 | 0.00 | 0.84 | 0.84 | 82 | 1013.6 |
| 20260905021037 | 84 | 101 | 0.0 | 1.0 | 0.00 | 0.84 | 0.84 | 81 | 1013.6 |
| 20260905020018 | 85 | 8 | 0.0 | 2.0 | 0.00 | 0.84 | 0.84 | 80 | 1013.6 |
| 20260905015201 | 86 | 123 | 0.0 | 1.0 | 0.00 | 0.84 | 0.84 | 77 | 1013.5 |
| 20260905014018 | 87 | 234 | 1.0 | 2.0 | 0.00 | 0.84 | 0.84 | 73 | 1013.4 |
| 20260905013017 | 87 | 257 | 0.0 | 2.0 | 0.00 | 0.84 | 0.84 | 74 | 1013.4 |
| 20260905012018 | 87 | 256 | 1.0 | 4.0 | 0.00 | 0.84 | 0.84 | 72 | 1013.2 |
| 20260905011018 | 87 | 343 | 0.0 | 1.0 | 0.00 | 0.84 | 0.84 | 74 | 1013.1 |
| 20260905010018 | 88 | 158 | 0.0 | 2.0 | 0.00 | 0.84 | 0.84 | 72 | 1013.1 |
| 20260905005018 | 89 | 233 | 0.0 | 1.0 | 0.00 | 0.84 | 0.84 | 68 | 1012.9 |
| 20260905004019 | 90 | 254 | 0.0 | 1.0 | 0.00 | 0.84 | 0.84 | 63 | 1012.8 |
| 20260905003036 | 91 | 222 | 2.0 | 3.0 | 0.00 | 0.84 | 0.84 | 64 | 1012.8 |
| 20260905002016 | 92 | 227 | 1.0 | 3.0 | 0.00 | 0.84 | 0.84 | 61 | 1012.7 |
| 20260905001019 | 92 | 227 | 1.0 | 2.0 | 0.00 | 0.84 | 0.84 | 58 | 1012.7 |
| 20260905000016 | 94 | 176 | 0.0 | 2.0 | 0.00 | 0.84 | 0.84 | 56 | 1012.7 |
| 20260904235018 | 94 | 238 | 0.0 | 2.0 | 0.00 | 0.84 | 0.84 | 54 | 1012.7 |